Weather in Bau-Bau

Indonesia     5°27′41″S   122°41′29″E
temp.,
°C
wind,
m/s
gust,
m/s
humid.,
%
clouds,
%
prec.,
mm/h
press.,
hPa
HPBL,
m
7 may, fri
fri723:00+23ese1298100 7.4 101099
02:00+23s1197100 12.6 100951
05:00+23n119598 1.3 100927
08:00+25se0189100 1.3 1011225
11:00+25sse2387100 2.5 1010393
14:00+24e2490100 6.5 1009395
17:00+23e1195100 0.0 100950
20:00+23ene2396100 0.1 1012146
8 may, sat
sat823:00+22e1295100 0.0 101161
02:00+22nne019299 0.0 100921
05:00+22ssw01905 0.0 101022
08:00+25sse0181100 0.0 1011173
11:00+28s2367100 0.1 10101101
14:00+27s227464 1.3 1008812
17:00+25ssw1386100 0.7 1008105
20:00+23ssw1191100 1.1 101125
9 may, sun
sun923:00+23ese0192100 0.1 101120
02:00+23ese0192100 0.1 100925
05:00+22e1192100 0.3 100929
08:00+25e128498 0.4 1011301
11:00+30ese236124 0.0 10101152
14:00+28ese1269100 0.5 1007819
17:00+25ene128663 1.3 100891
20:00+23e129299 2.1 101059
10 may, mon
mon1023:00+23ene1294100 0.3 101050
02:00+23ene2396100 1.9 100994
05:00+23ene129698 0.9 100962
08:00+26e2485100 1.4 1011499
11:00+29e346589 0.6 10101199
14:00+28e346822 1.6 10081049
17:00+26e3781100 0.2 1009531
20:00+24ese379096 0.3 1011341
11 may, tue
tue1123:00+24e2690100 0.1 1011214
02:00+23e3892100 2.9 1010308
05:00+23se2492100 0.4 1010142
08:00+26ese258475 0.4 1012583
11:00+26ese2481100 2.4 1011733
14:00+27e2380100 5.4 1009741
17:00+24e1391100 1.1 1009129
20:00+23e2793100 1.1 1011237